This is the latest recevied weather packets stored in our database for station/object KJ5JYX. If no packets are shown the sender has not sent any weather packets the latest 10 day(s).
| Time | Temp. | Humidity | Pressure | Rain* | Wind** | Luminosity | Snow |
|---|---|---|---|---|---|---|---|
| 1778010433 | 31.11° C | 65% | 1007.5 hPa | 0 mm | - | 622 W/m² | - |
| 1778010129 | 30.56° C | 64% | 1007.7 hPa | 0 mm | - | 636 W/m² | - |
| 1778009825 | 31.11° C | 63% | 1007.5 hPa | 0 mm | - | 468 W/m² | - |
| 1778009523 | 31.11° C | 62% | 1007.6 hPa | 0 mm | - | 597 W/m² | - |
| 1778009221 | 31.11° C | 62% | 1007.7 hPa | 0 mm | - | 703 W/m² | - |
| 1778008918 | 30.56° C | 64% | 1007.8 hPa | 0 mm | - | 705 W/m² | - |
| 1778008616 | 30.56° C | 63% | 1008 hPa | 0 mm | - | 702 W/m² | - |
| 1778008314 | 31.11° C | 64% | 1008 hPa | 0 mm | - | 708 W/m² | - |
| 1778008010 | 30.56° C | 66% | 1008 hPa | 0 mm | - | 683 W/m² | - |
| 1778007710 | 30.56° C | 65% | 1008.1 hPa | 0 mm | - | 680 W/m² | - |
| 1778007407 | 30.56° C | 65% | 1008.3 hPa | 0 mm | - | 637 W/m² | - |
| 1778007103 | 30.56° C | 65% | 1008.3 hPa | 0 mm | - | 709 W/m² | - |
| 1778006799 | 30.56° C | 65% | 1008.2 hPa | 0 mm | - | 587 W/m² | - |
| 1778006496 | 30° C | 66% | 1008.5 hPa | 0 mm | - | 732 W/m² | - |
| 1778006193 | 30° C | 66% | 1008.5 hPa | 0 mm | - | 750 W/m² | - |
| 1778005891 | 30° C | 70% | 1008.5 hPa | 0 mm | - | 587 W/m² | - |
| 1778005587 | 29.44° C | 69% | 1008.6 hPa | 0 mm | - | 602 W/m² | - |
| 1778005284 | 29.44° C | 68% | 1008.8 hPa | 0 mm | - | 680 W/m² | - |
| 1778004980 | 28.89° C | 69% | 1008.8 hPa | 0 mm | - | 684 W/m² | - |
| 1778004678 | 28.33° C | 70% | 1009 hPa | 0 mm | - | 639 W/m² | - |
| 1778004374 | 28.89° C | 70% | 1009.2 hPa | 0 mm | - | 648 W/m² | - |
| 1778004072 | 28.33° C | 70% | 1009 hPa | 0 mm | - | 675 W/m² | - |
| 1778003767 | 28.33° C | 71% | 1009.3 hPa | 0 mm | - | 661 W/m² | - |
| 1778003464 | 27.78° C | 72% | 1009.5 hPa | 0 mm | - | 672 W/m² | - |
| 1778003161 | 28.89° C | 69% | 1009.3 hPa | 0 mm | - | 583 W/m² | - |
* Rain latest hour (hover to see other rain measurements)
** Current wind speed in m/s (hover to see current wind gust speed)